SCP
0 0 0 0 0 0 0 0 0 0 0 0 0 0 0 0 0 0 0 0 0 0 0 0 0 0 0 0 0 0 0 0 0 0 0 0 0 0 0 0 0 0 0 0
0 0 0 0 0 0 0 0 0 0 0 0 0 0 0 0 0 0 0 0 0 0 0 0 0 0 0 0 0 0 0 0 0 0 0 0 0 0 0 0 0 0 0 0
0 0 0 0 0 0 0 0 0 0 0 0 0 0 0 0 0 0 0 0 0 0 0 0 0 0 0 0 0 0 0 0 0 0 0 0 0 0 0 0 0 0 0 0
0 0 0 0 0 0 0 0 0 0 0 0 0 0 0 0 0 0 0 0 0 0 0 0 0 0 0 0 0 0 0 0 0 0 0 0 0 0 0 0 0 0 0 0
0 0 0 0 0 0 0 0 0 0 0 0 0 0 0 0 0 0 0 0 0 0 0 0 0 0 0 0 0 0 0 0 0 0 0 0 0 0 0 0 0 0 0 0
0 0 0 0 0 0 0 0 0 0 0 0 0 0 0 0 0 0 0 0 0 0 0 0 0 0 0 0 0 0 0 0 0 0 0 0 0 0 0 0 0 0 0 0
0 0 0 0 0 0 0 0 0 0 0 0 0 0 0 0 0 0 0 0 0 0 0 0 0 0 0 0 0 0 0 0 0 0 0 0 0 0 0 0 0 0 0 0
0 0 0 0 0 0 0 0 0 0 0 0 0 0 0 0 0 0 0 0 0 0 0 0 0 0 0 0 0 0 0 0 0 0 0 0 0 0 0 0 0 0 0 0
0 0 0 0 0 0 0 0 0 0 0 0 0 0 0 0 0 0 0 0 0 0 0 0 0 0 0 0 0 0 0 0 0 0 0 0 0 0 0 0 0 0 0 0
0 0 0 0 0 0 0 0 0 0 0 0 0 0 0 0 0 0 0 0 0 0 0 0 0 0 0 0 0 0 0 0 0 0 0 0 0 0 0 0 0 0 0 0
0 0 0 0 0 0 0 0 0 0 0 0 0 0 0 0 0 0 0 0 0 0 0 0 0 0 0 0 0 0 0 0 0 0 0 0 0 0 0 0 0 0 0 0
0 0 0 0 0 0 0 0 0 0 0 0 0 0 0 0 0 0 0 0 0 0 0 0 0 0 0 0 0 0 0 0 0 0 0 0 0 0 0 0 0 0 0 0
0 0 0 0 0 0 0 0 0 0 0 0 0 0 0 0 0 0 0 0 0 0 0 0 0 0 0 0 0 0 0 0 0 0 0 0 0 0 0 0 0 0 0 0
0 0 0 0 0 0 0 0 0 0 0 0 0 0 0 0 0 0 0 0 0 0 0 0 0 0 0 0 0 0 0 0 0 0 0 0 0 0 0 0 0 0 0 0
0 0 0 0 0 0 0 0 0 0 0 0 0 0 0 0 0 0 0 0 0 0 0 0 0 0 0 0 0 0 0 0 0 0 0 0 0 0 0 0 0 0 0 0
0 0 0 0 0 0 0 0 0 0 0 0 0 0 0 0 0 0 0 0 0 0 0 0 0 0 0 0 0 0 0 0 0 0 0 0 0 0 0 0 0 0 0 0
0 0 0 0 0 0 0 0 0 0 0 0 0 0 0 0 0 0 0 0 0 0 0 0 0 0 0 0 0 0 0 0 0 0 0 0 0 0 0 0 0 0 0 0
0 0 0 0 0 0 0 0 0 0 0 0 0 0 0 0 0 0 0 0 0 0 0 0 0 0 0 0 0 0 0 0 0 0 0 0 0 0 0 0 0 0 0 0
0 0 0 0 0 0 0 0 0 0 0 0 0 0 0 0 0 0 0 0 0 0 0 0 0 0 0 0 0 0 0 0 0 0 0 0 0 0 0 0 0 0 0 0
0 0 0 0 0 0 0 0 0 0 0 0 0 0 0 0 0 0 0 0 0 0 0 0 0 0 0 0 0 0 0 0 0 0 0 0 0 0 0 0 0 0 0 0
0 0 0 0 0 0 0 0 0 0 0 0 0 0 0 0 0 0 0 0 0 0 0 0 0 0 0 0 0 0 0 0 0 0 0 0 0 0 0 0 0 0 0 0
0 0 0 0 0 0 0 0 0 0 0 0 0 0 0 0 0 0 0 0 0 0 0 0 0 0 0 0 0 0 0 0 0 0 0 0 0 0 0 0 0 0 0 0
0 0 0 0 0 0 0 0 0 0 0 0 0 0 0 0 0 0 0 0 0 0 0 0 0 0 0 0 0 0 0 0 0 0 0 0 0 0 0 0 0 0 0 0
0 0 0 0 0 0 0 0 0 0 0 0 0 0 0 0 0 0 0 0 0 0 0 0 0 0 0 0 0 0 0 0 0 0 0 0 0 0 0 0 0 0 0 0
0 0 0 0 0 0 0 0 0 0 0 0 0 0 0 0 0 0 0 0 0 0 0 0 0 0 0 0 0 0 0 0 0 0 0 0 0 0 0 0 0 0 0 0
0 0 0 0 0 0 0 0 0 0 0 0 0 0 0 0 0 0 0 0 0 0 0 0 0 0 0 0 0 0 0 0 0 0 0 0 0 0 0 0 0 0 0 0
Wind_Speed
3 4 7 12 13 7 4 4 6 7 5 3 6 8 11 10 5 2 5 8 9 10 7 9 10 11 13 16 17 17 17 16 11 6 4 4 4 4 5 5 4 2 1 2
3 7 12 6 4 4 4 5 7 7 4 3 6 8 8 6 4 6 8 9 8 8 8 11 12 13 15 15 15 16 17 16 14 8 4 3 3 4 5 6 8 8 5 4
11 7 4 5 5 6 6 7 6 6 5 5 4 7 5 2 7 10 10 9 7 8 8 8 11 13 13 15 15 14 15 16 15 13 8 6 6 6 8 9 8 10 9 8
7 6 3 4 6 6 6 6 6 3 1 4 2 5 7 2 4 7 7 6 6 6 6 8 9 11 13 11 10 13 14 16 15 13 12 13 10 8 7 6 7 9 11 10
7 4 6 7 7 8 7 1 2 2 2 3 3 4 9 1 3 4 4 5 5 5 5 7 8 8 9 9 10 10 13 15 14 14 14 12 11 7 6 7 11 10 10 11
4 2 5 6 1 4 3 4 5 5 4 3 5 6 8 3 4 7 6 5 4 4 5 5 6 7 8 8 9 10 12 13 12 13 13 13 12 11 11 11 10 8 7 8
3 3 2 3 4 2 4 5 3 3 1 7 2 4 8 3 1 9 11 7 5 4 4 4 5 7 7 8 8 9 10 11 10 11 12 11 10 10 11 9 8 8 7 7
5 5 5 4 7 7 5 8 7 6 6 5 5 7 4 4 4 8 8 7 5 4 4 4 4 5 6 6 7 8 9 9 9 9 9 8 8 6 6 7 6 6 5 5
8 6 0 2 2 8 6 5 6 6 1 3 7 6 1 3 4 5 6 6 6 6 5 5 4 5 5 5 5 6 6 6 7 7 6 7 7 7 6 6 6 5 5 6
9 5 3 1 2 2 3 7 5 5 4 6 7 6 6 8 8 7 7 7 7 6 6 5 4 4 4 3 3 4 4 4 4 5 5 4 5 5 4 5 6 6 6 6
6 7 3 2 7 8 5 4 5 5 6 7 6 9 4 9 12 12 11 9 9 8 7 6 5 4 4 3 3 2 2 1 2 2 3 3 4 4 4 4 5 5 6 7
5 6 4 6 5 3 7 8 9 7 7 6 5 9 1 5 8 10 10 10 9 8 7 6 6 5 4 3 3 2 2 2 2 1 1 2 3 4 4 5 5 5 6 7
7 7 2 5 2 1 4 3 4 4 3 5 7 9 0 1 4 7 8 8 7 7 6 5 5 5 4 4 4 4 4 4 4 3 3 3 3 4 5 5 6 6 6 7
7 7 9 12 8 6 5 4 4 5 5 6 9 9 6 5 6 6 6 7 6 7 7 6 6 6 5 5 5 5 5 5 4 3 3 4 5 5 5 6 6 6 7 7
6 7 5 4 3 3 6 7 7 8 9 10 10 12 14 8 8 7 7 6 6 6 6 7 7 6 6 5 5 5 5 4 3 3 3 4 5 5 5 6 6 7 7 8
4 5 3 2 1 1 7 11 7 10 10 11 13 18 11 4 4 4 5 7 6 6 6 6 7 6 6 6 5 4 4 3 1 2 3 4 5 5 6 7 8 9 9 10
5 8 6 4 3 5 12 12 12 10 10 10 15 13 3 4 6 6 6 6 6 6 5 6 6 7 6 6 4 4 2 1 0 2 3 4 5 6 7 9 10 11 12 12
8 7 5 3 4 10 11 1 6 8 10 10 8 6 6 7 5 4 5 6 6 6 6 6 6 6 5 3 3 2 2 1 1 2 3 4 5 6 9 10 11 12 12 13
5 9 6 5 6 11 13 7 7 8 9 7 9 7 5 3 2 3 5 6 7 7 7 7 7 5 4 4 3 3 2 1 1 2 3 4 5 6 9 10 12 12 12 13
3 5 7 7 7 12 12 3 2 3 8 6 7 7 6 7 4 7 7 7 8 8 6 6 5 4 5 4 3 3 2 1 1 2 3 4 4 5 8 11 12 11 11 13
6 4 7 9 9 13 10 4 3 5 10 5 7 9 9 11 11 8 7 8 8 8 7 6 6 5 5 4 3 3 1 0 1 2 3 5 6 7 9 9 10 10 12 13
11 10 9 7 8 15 7 8 10 12 5 5 8 10 11 11 9 9 9 9 9 7 6 6 6 6 5 4 4 2 1 1 2 3 5 6 7 7 7 8 10 9 10 12
10 12 10 13 13 7 9 11 12 8 8 8 9 10 12 11 11 11 10 10 9 8 7 6 6 6 5 4 4 2 1 2 2 3 6 7 7 7 7 8 10 9 8 9
6 5 6 6 9 8 9 10 9 8 10 11 11 12 12 12 12 11 10 9 8 7 7 7 7 7 5 4 3 2 2 2 2 5 6 7 6 7 6 7 8 7 8 9
11 8 7 8 9 7 9 13 15 13 11 10 10 10 12 12 13 11 10 9 8 6 6 7 6 6 5 4 2 2 2 2 3 5 6 6 6 6 7 7 7 10 10 12
11 11 10 11 11 9 9 12 14 14 14 14 14 14 12 12 14 12 10 7 6 6 6 6 5 5 4 3 3 3 3 3 4 5 5 5 5 5 6 8 10 16 18 24
Wind_Direction
126 114 198 208 202 200 184 205 247 260 271 279 262 268 276 287 308 338 86 90 78 63 42 29 22 22 29 31 31 29 29 22 24 26 30 38 37 26 28 26 28 41 100 149
102 234 227 209 190 210 228 248 262 278 285 258 270 277 281 328 21 51 89 88 79 65 43 34 31 31 34 35 32 33 31 28 27 24 21 36 43 36 29 28 29 26 29 39
183 221 200 179 198 203 222 219 231 251 319 329 320 304 294 55 70 63 67 73 71 69 54 38 37 36 36 36 32 36 36 35 31 28 31 31 32 29 23 18 18 17 22 25
227 248 198 194 215 189 244 229 212 226 259 290 350 291 282 229 84 70 68 64 63 57 54 51 46 44 40 34 33 40 41 41 37 37 43 49 48 41 21 12 17 17 21 21
228 213 187 209 222 182 216 183 170 193 196 274 284 243 276 251 155 127 106 92 80 66 61 56 50 49 43 34 37 39 44 44 40 44 45 49 47 38 25 26 25 20 18 21
238 239 193 201 164 165 146 70 43 53 83 260 225 197 270 246 205 154 145 128 110 90 71 62 53 53 49 40 41 41 48 45 40 44 46 48 45 38 35 28 23 17 11 13
259 249 228 149 123 85 113 101 11 328 327 247 263 220 248 327 319 154 153 147 134 117 98 79 65 58 53 46 42 42 48 46 39 44 46 43 42 40 39 29 22 18 12 6
202 248 215 185 175 172 176 154 172 210 232 275 303 244 274 16 60 108 129 138 142 141 131 114 100 86 72 60 50 46 47 44 37 41 43 41 40 39 35 29 25 19 9 357
189 234 172 178 179 148 155 187 167 141 134 272 264 274 340 96 98 127 146 157 169 172 163 147 126 106 93 79 66 58 53 45 37 35 37 38 35 35 27 18 16 10 2 354
168 199 208 177 96 24 157 147 117 144 193 245 267 251 226 184 193 188 189 190 193 189 177 160 142 126 116 108 93 74 62 53 38 32 29 28 24 23 15 9 5 356 349 349
158 173 178 150 193 189 150 161 162 166 174 184 248 260 214 187 188 192 199 200 197 192 182 169 155 148 141 134 127 119 102 70 35 18 11 8 359 356 355 351 342 337 335 337
147 143 198 231 248 224 192 188 169 184 220 205 219 261 228 189 181 182 194 202 200 189 178 166 160 158 157 162 175 188 201 215 237 257 296 315 320 324 325 318 314 319 320 320
147 136 147 323 287 222 212 197 178 154 164 205 220 256 277 140 173 192 199 203 194 180 169 162 165 173 183 192 202 212 220 227 235 237 254 278 290 294 294 293 296 300 300 302
136 155 183 204 204 183 198 195 158 149 188 223 228 246 248 227 233 228 219 207 188 176 173 175 185 197 204 208 212 220 231 231 232 234 251 272 280 284 287 291 295 295 294 293
134 186 207 215 147 173 220 225 186 197 204 216 238 243 254 241 233 226 211 193 177 179 186 191 197 207 213 220 227 228 234 235 230 240 266 279 291 299 304 307 307 305 302 298
111 151 137 264 39 237 267 255 225 232 230 232 249 261 265 250 195 195 190 180 185 195 200 203 204 207 216 222 229 232 234 238 228 263 288 307 322 327 327 324 322 319 315 311
142 135 147 234 26 22 268 240 220 221 210 206 233 247 236 208 201 195 190 189 197 202 202 203 206 213 220 223 219 217 222 241 347 315 325 340 348 345 339 335 330 325 320 315
141 132 134 129 86 238 247 174 218 233 246 227 235 246 214 211 200 196 193 196 206 202 201 208 213 218 213 195 173 156 120 83 26 358 2 13 5 348 337 331 322 317 314 310
145 139 134 149 210 269 288 257 203 204 254 225 216 223 206 181 131 268 237 205 201 206 210 216 216 205 178 159 145 128 110 70 31 21 19 12 0 339 327 318 313 312 310 306
130 129 139 155 185 231 246 245 208 129 271 240 195 199 186 150 186 243 230 212 213 217 218 212 195 168 158 149 129 127 127 94 41 15 351 345 340 322 310 305 304 303 301 298
140 167 188 194 215 248 249 219 126 185 242 227 190 195 186 190 209 218 209 214 219 223 215 192 174 164 156 138 127 139 149 162 34 5 333 322 316 303 295 292 294 296 296 297
167 173 195 179 207 245 215 155 190 218 216 195 199 201 200 213 224 225 222 225 228 221 201 177 166 156 138 129 129 154 201 350 358 334 315 303 293 289 290 285 289 290 291 295
195 191 186 193 213 225 177 195 213 202 201 207 206 210 208 218 229 232 232 231 228 215 192 171 162 153 142 133 135 176 239 318 322 310 293 285 280 275 278 282 291 293 290 292
234 193 177 219 248 236 223 229 233 214 214 216 210 212 211 222 233 236 235 232 222 204 179 160 157 165 167 154 146 184 265 300 292 286 285 285 285 287 286 284 288 288 290 290
216 191 191 220 238 243 238 230 235 236 233 235 233 227 225 228 236 235 234 229 214 189 161 156 165 171 169 164 191 228 246 258 269 275 281 289 291 287 290 286 280 287 277 279
217 203 197 221 218 205 223 227 227 231 235 235 237 242 237 226 231 232 229 218 189 164 149 151 155 160 170 194 236 244 247 244 256 279 288 291 293 291 293 297 298 296 299 302